Time,TemperatureF,DewpointF,PressureIn,WindDirection,WindDirectionDegrees,WindSpeedMPH,WindSpeedGustMPH,Humidity,HourlyPrecipIn,Conditions,Clouds,dailyrainin,SolarRadiationWatts/m^2,SoftwareType,DateUTC
2013-01-24 00:33:00,35.0,35.0,-100.00,North,351,0.0,4.0,100,0.01,,,0.01,0.000000,,2013-01-24 08:33:00,
2013-01-24 00:43:00,35.0,35.0,-100.00,North,351,0.0,4.0,100,0.01,,,0.01,0.000000,,2013-01-24 08:43:00,
2013-01-24 00:53:00,35.0,35.0,-100.00,North,351,0.0,4.0,100,0.01,,,0.01,0.000000,,2013-01-24 08:53:00,
2013-01-24 01:33:00,35.0,35.0,-100.00,WSW,248,0.0,3.0,100,0.00,,,0.01,0.000000,,2013-01-24 09:33:00,
2013-01-24 01:43:00,35.0,35.0,-100.00,WSW,248,0.0,3.0,100,0.00,,,0.01,0.000000,,2013-01-24 09:43:00,
2013-01-24 01:53:00,35.0,35.0,-100.00,WSW,248,0.0,3.0,100,0.00,,,0.01,0.000000,,2013-01-24 09:53:00,
2013-01-24 02:02:00,37.0,37.0,-100.00,East,83,0.0,0.0,100,-99.99,,,0.01,0.000000,,2013-01-24 10:02:00,
2013-01-24 02:33:00,37.0,37.0,-100.00,East,83,0.0,0.0,100,-99.99,,,0.01,0.000000,,2013-01-24 10:33:00,
2013-01-24 02:43:00,37.0,37.0,-100.00,East,83,0.0,0.0,100,-99.99,,,0.01,0.000000,,2013-01-24 10:43:00,
2013-01-24 02:53:00,37.0,37.0,-100.00,East,83,0.0,0.0,100,-99.99,,,0.01,0.000000,,2013-01-24 10:53:00,
2013-01-24 03:23:00,35.0,35.0,-100.00,SE,138,0.0,0.0,100,0.01,,,0.02,0.000000,,2013-01-24 11:23:00,
2013-01-24 03:33:00,35.0,35.0,-100.00,SE,138,0.0,0.0,100,0.01,,,0.02,0.000000,,2013-01-24 11:33:00,
2013-01-24 04:02:00,36.0,36.0,-100.00,East,96,0.0,0.0,100,-99.99,,,0.02,0.000000,,2013-01-24 12:02:00,
2013-01-24 04:33:00,36.0,36.0,-100.00,East,96,0.0,0.0,100,-99.99,,,0.02,0.000000,,2013-01-24 12:33:00,
2013-01-24 05:02:00,37.0,37.0,-100.00,East,91,0.0,0.0,100,0.00,,,0.02,0.000000,,2013-01-24 13:02:00,
2013-01-24 05:33:00,37.0,37.0,-100.00,East,91,0.0,0.0,100,0.00,,,0.02,0.000000,,2013-01-24 13:33:00,
2013-01-24 05:43:00,37.0,37.0,-100.00,East,91,0.0,0.0,100,0.00,,,0.02,0.000000,,2013-01-24 13:43:00,
2013-01-24 05:53:00,37.0,37.0,-100.00,East,91,0.0,0.0,100,0.00,,,0.02,0.000000,,2013-01-24 13:53:00,
2013-01-24 06:02:00,38.0,38.0,-100.00,ESE,103,0.0,0.0,100,0.00,,,0.02,0.000000,,2013-01-24 14:02:00,
2013-01-24 06:33:00,38.0,38.0,-100.00,ESE,103,0.0,0.0,100,0.00,,,0.02,0.000000,,2013-01-24 14:33:00,
2013-01-24 06:43:00,38.0,38.0,-100.00,ESE,103,0.0,0.0,100,0.00,,,0.02,0.000000,,2013-01-24 14:43:00,
2013-01-24 06:54:00,38.0,38.0,-100.00,ESE,103,0.0,0.0,100,0.00,,,0.02,0.000000,,2013-01-24 14:54:00,
2013-01-24 07:02:00,38.0,38.0,-100.00,ENE,69,0.0,0.0,100,0.00,,,0.02,0.000000,,2013-01-24 15:02:00,
2013-01-24 07:33:00,38.0,38.0,-100.00,ENE,69,0.0,0.0,100,0.00,,,0.02,0.000000,,2013-01-24 15:33:00,
2013-01-24 07:43:00,38.0,38.0,-100.00,ENE,69,0.0,0.0,100,0.00,,,0.02,0.000000,,2013-01-24 15:43:00,
2013-01-24 07:53:00,38.0,38.0,-100.00,ENE,69,0.0,0.0,100,0.00,,,0.02,0.000000,,2013-01-24 15:53:00,
2013-01-24 08:33:00,38.0,38.0,-100.00,ESE,116,0.0,3.0,100,0.00,,,0.02,10.000000,,2013-01-24 16:33:00,
2013-01-24 08:43:00,38.0,38.0,-100.00,ESE,116,0.0,3.0,100,0.00,,,0.02,10.000000,,2013-01-24 16:43:00,
2013-01-24 09:01:00,38.0,38.0,-100.00,ESE,116,0.0,3.0,100,0.00,,,0.02,10.000000,,2013-01-24 17:01:00,
2013-01-24 09:32:00,40.0,40.0,-100.00,SE,128,0.0,0.0,100,0.00,,,0.02,50.000000,,2013-01-24 17:32:00,
2013-01-24 09:42:00,40.0,40.0,-100.00,SE,128,0.0,0.0,100,0.00,,,0.02,50.000000,,2013-01-24 17:42:00,
2013-01-24 09:52:00,40.0,40.0,-100.00,SE,128,0.0,0.0,100,0.00,,,0.02,50.000000,,2013-01-24 17:52:00,
2013-01-24 10:01:00,40.0,40.0,-100.00,SE,128,0.0,0.0,100,0.00,,,0.02,50.000000,,2013-01-24 18:01:00,
2013-01-24 10:33:00,41.0,41.0,-100.00,South,180,0.0,0.0,100,0.00,,,0.02,96.000000,,2013-01-24 18:33:00,
2013-01-24 10:43:00,41.0,41.0,-100.00,South,180,0.0,0.0,100,0.00,,,0.02,96.000000,,2013-01-24 18:43:00,
2013-01-24 10:53:00,41.0,41.0,-100.00,South,180,0.0,0.0,100,0.00,,,0.02,96.000000,,2013-01-24 18:53:00,
2013-01-24 11:01:00,41.0,41.0,-100.00,South,180,0.0,0.0,100,0.00,,,0.02,96.000000,,2013-01-24 19:01:00,
2013-01-24 11:22:00,43.0,41.0,-100.00,ENE,62,0.0,0.0,93,0.00,,,0.02,148.000000,,2013-01-24 19:22:00,
2013-01-24 11:33:00,43.0,41.0,-100.00,ENE,62,0.0,0.0,93,0.00,,,0.02,148.000000,,2013-01-24 19:33:00,
2013-01-24 11:42:00,43.0,41.0,-100.00,ENE,62,0.0,0.0,93,0.00,,,0.02,148.000000,,2013-01-24 19:42:00,
2013-01-24 11:52:00,43.0,41.0,-100.00,ENE,62,0.0,0.0,93,0.00,,,0.02,148.000000,,2013-01-24 19:52:00,
2013-01-24 12:01:00,43.0,41.0,-100.00,ENE,62,0.0,0.0,93,0.00,,,0.02,148.000000,,2013-01-24 20:01:00,
2013-01-24 12:02:00,43.0,43.0,-100.00,East,97,0.0,0.0,100,0.00,,,0.02,100.000000,,2013-01-24 20:02:00,
2013-01-24 12:33:00,43.0,43.0,-100.00,East,97,0.0,0.0,100,0.00,,,0.02,100.000000,,2013-01-24 20:33:00,
2013-01-24 12:42:00,43.0,43.0,-100.00,East,97,0.0,0.0,100,0.00,,,0.02,100.000000,,2013-01-24 20:42:00,
2013-01-24 12:52:00,43.0,43.0,-100.00,East,97,0.0,0.0,100,0.00,,,0.02,100.000000,,2013-01-24 20:52:00,
2013-01-24 13:02:00,45.0,43.0,-100.00,North,355,0.0,0.0,91,0.02,,,0.04,164.000000,,2013-01-24 21:02:00,
2013-01-24 13:23:00,45.0,43.0,-100.00,North,355,0.0,0.0,91,0.02,,,0.04,164.000000,,2013-01-24 21:23:00,
2013-01-24 13:33:00,45.0,43.0,-100.00,North,355,0.0,0.0,91,0.02,,,0.04,164.000000,,2013-01-24 21:33:00,
2013-01-24 13:43:00,45.0,43.0,-100.00,North,355,0.0,0.0,91,0.02,,,0.04,164.000000,,2013-01-24 21:43:00,
2013-01-24 13:52:00,45.0,43.0,-100.00,North,355,0.0,0.0,91,0.02,,,0.04,164.000000,,2013-01-24 21:52:00,
2013-01-24 14:33:00,43.0,43.0,-100.00,SSW,201,0.0,4.0,100,0.03,,,0.07,144.000000,,2013-01-24 22:33:00,
2013-01-24 14:42:00,43.0,43.0,-100.00,SSW,201,0.0,4.0,100,0.03,,,0.07,144.000000,,2013-01-24 22:42:00,
2013-01-24 14:53:00,43.0,43.0,-100.00,SSW,201,0.0,4.0,100,0.03,,,0.07,144.000000,,2013-01-24 22:53:00,
2013-01-24 15:01:00,43.0,43.0,-100.00,SSW,201,0.0,4.0,100,0.03,,,0.07,144.000000,,2013-01-24 23:01:00,
2013-01-24 15:32:00,44.0,44.0,-100.00,East,92,0.0,2.0,100,0.04,,,0.11,92.000000,,2013-01-24 23:32:00,
2013-01-24 15:42:00,44.0,44.0,-100.00,East,92,0.0,2.0,100,0.04,,,0.11,92.000000,,2013-01-24 23:42:00,
2013-01-24 15:52:00,44.0,44.0,-100.00,East,92,0.0,2.0,100,0.04,,,0.11,92.000000,,2013-01-24 23:52:00,
2013-01-24 16:01:00,44.0,44.0,-100.00,East,92,0.0,2.0,100,0.04,,,0.11,92.000000,,2013-01-25 00:01:00,
2013-01-24 16:22:00,42.0,42.0,-100.00,ENE,75,0.0,0.0,100,0.03,,,0.14,61.000000,,2013-01-25 00:22:00,
2013-01-24 16:32:00,42.0,42.0,-100.00,ENE,75,0.0,0.0,100,0.03,,,0.14,61.000000,,2013-01-25 00:32:00,
2013-01-24 16:42:00,42.0,42.0,-100.00,ENE,75,0.0,0.0,100,0.03,,,0.14,61.000000,,2013-01-25 00:42:00,
2013-01-24 16:52:00,42.0,42.0,-100.00,ENE,75,0.0,0.0,100,0.03,,,0.14,61.000000,,2013-01-25 00:52:00,
2013-01-24 17:01:00,42.0,42.0,-100.00,ENE,75,0.0,0.0,100,0.03,,,0.14,61.000000,,2013-01-25 01:01:00,
2013-01-24 17:32:00,42.0,42.0,-100.00,East,85,0.0,0.0,100,0.06,,,0.20,17.000000,,2013-01-25 01:32:00,
2013-01-24 17:42:00,42.0,42.0,-100.00,East,85,0.0,0.0,100,0.06,,,0.20,17.000000,,2013-01-25 01:42:00,
2013-01-24 17:52:00,42.0,42.0,-100.00,East,85,0.0,0.0,100,0.06,,,0.20,17.000000,,2013-01-25 01:52:00,
2013-01-24 18:01:00,42.0,42.0,-100.00,East,85,0.0,0.0,100,0.06,,,0.20,17.000000,,2013-01-25 02:01:00,
2013-01-24 18:22:00,41.0,41.0,-100.00,ESE,105,0.0,0.0,100,0.03,,,0.23,0.000000,,2013-01-25 02:22:00,
2013-01-24 18:33:00,41.0,41.0,-100.00,ESE,105,0.0,0.0,100,0.03,,,0.23,0.000000,,2013-01-25 02:33:00,
2013-01-24 18:42:00,41.0,41.0,-100.00,ESE,105,0.0,0.0,100,0.03,,,0.23,0.000000,,2013-01-25 02:42:00,
2013-01-24 18:52:00,41.0,41.0,-100.00,ESE,105,0.0,0.0,100,0.03,,,0.23,0.000000,,2013-01-25 02:52:00,
2013-01-24 19:01:00,41.0,41.0,-100.00,ESE,105,0.0,0.0,100,0.03,,,0.23,0.000000,,2013-01-25 03:01:00,
2013-01-24 19:33:00,39.0,39.0,-100.00,East,95,0.0,0.0,100,0.01,,,-99.99,0.000000,,2013-01-25 03:33:00,
2013-01-24 19:42:00,39.0,39.0,-100.00,East,95,0.0,0.0,100,0.01,,,-99.99,0.000000,,2013-01-25 03:42:00,
2013-01-24 19:52:00,39.0,39.0,-100.00,East,95,0.0,0.0,100,0.01,,,-99.99,0.000000,,2013-01-25 03:52:00,
2013-01-24 20:01:00,39.0,39.0,-100.00,East,95,0.0,0.0,100,0.01,,,-99.99,0.000000,,2013-01-25 04:01:00,
2013-01-24 20:02:00,40.0,40.0,-100.00,ENE,77,0.0,0.0,100,0.00,,,0.24,0.000000,,2013-01-25 04:02:00,
2013-01-24 20:32:00,40.0,40.0,-100.00,ENE,77,0.0,0.0,100,0.00,,,0.24,0.000000,,2013-01-25 04:32:00,
2013-01-24 20:42:00,40.0,40.0,-100.00,ENE,77,0.0,0.0,100,0.00,,,0.24,0.000000,,2013-01-25 04:42:00,
2013-01-24 20:51:00,40.0,40.0,-100.00,ENE,77,0.0,0.0,100,0.00,,,0.24,0.000000,,2013-01-25 04:51:00,
2013-01-24 21:32:00,39.0,39.0,-100.00,East,87,0.0,0.0,100,0.00,,,0.24,0.000000,,2013-01-25 05:32:00,
2013-01-24 21:43:00,39.0,39.0,-100.00,East,87,0.0,0.0,100,0.00,,,0.24,0.000000,,2013-01-25 05:43:00,
2013-01-24 21:52:00,39.0,39.0,-100.00,East,87,0.0,0.0,100,0.00,,,0.24,0.000000,,2013-01-25 05:52:00,
2013-01-24 22:01:00,39.0,39.0,-100.00,East,87,0.0,0.0,100,0.00,,,0.24,0.000000,,2013-01-25 06:01:00,
2013-01-24 22:32:00,39.0,39.0,-100.00,ESE,112,0.0,0.0,100,0.00,,,-99.99,0.000000,,2013-01-25 06:32:00,
2013-01-24 22:42:00,39.0,39.0,-100.00,ESE,112,0.0,0.0,100,0.00,,,-99.99,0.000000,,2013-01-25 06:42:00,
2013-01-24 22:52:00,39.0,39.0,-100.00,ESE,112,0.0,0.0,100,0.00,,,-99.99,0.000000,,2013-01-25 06:52:00,
2013-01-24 23:01:00,39.0,39.0,-100.00,ESE,112,0.0,0.0,100,0.00,,,-99.99,0.000000,,2013-01-25 07:01:00,
2013-01-24 23:32:00,37.0,37.0,-100.00,East,79,0.0,0.0,100,0.01,,,0.25,0.000000,,2013-01-25 07:32:00,
2013-01-24 23:42:00,37.0,37.0,-100.00,East,79,0.0,0.0,100,0.01,,,0.25,0.000000,,2013-01-25 07:42:00,
2013-01-24 23:52:00,37.0,37.0,-100.00,East,79,0.0,0.0,100,0.01,,,0.25,0.000000,,2013-01-25 07:52:00,